sat.trackr.live / text

‹ back to catalog

STARLINK-35756

NORAD 67175 · 2025-303N

PAYLOAD ACTIVE UNKNOWN

§ Identity

Operator
Country
US
Launch date
2025-12-17
Launch site
AFETR
Launch vehicle
Mass (kg)
RCS (m²)

Purposes: comms

External: N2YO · Heavens-Above · Gunter

§ Orbital elements

Epoch: 2026-05-24T23:48:49.546368Z

Period
94.26 min
Inclination
43.0010°
Eccentricity
0.0002270
Mean motion
15.27611435 rev/d
Perigee alt
481.4 km
Apogee alt
484.5 km
Semi-major
6,861.1 km
B*
4.9730e-4
RAAN
239.8819°
Arg perigee
265.0934°
Mean anomaly
94.9659°
Rev number
2,440

§ Raw data

STARLINK-357561 67175U 25303N   26144.99224012  .00013461  00000+0  49730-3 0  99952 67175  43.0010 239.8819 0002270 265.0934  94.9659 15.27611435 24403

JSON: /api/v1/satellites/67175 · /tle

For live sub-satellite position, see the globe view (requires WebGL).

§ Visibility from observer

Set your observer location to see the next 7 days of passes ≥ 10°. The values pass through the URL so the page stays shareable.

No JS? Fill the form by hand. The geolocation button needs JavaScript.